Lid_Strength_Index
-1 -1 -0 2 10 11 13 10 5 6 6 4 4 5 5 5 7 10 1 0 1 0 -1 -1 -1 -1 -1 -1 -1 -1 -1 -1 -1 -1 -1 -1 -1 -1 -1 -1 -1 -1 -1 -1 -1 -1 -1 -1 -1
1 0 1 4 10 15 12 7 7 5 4 4 4 4 5 6 3 3 2 0 1 -0 -1 -1 -1 -1 -1 -1 -1 -1 -1 -1 -1 -1 -1 -1 -1 -1 -1 -1 -1 -1 -1 -1 -1 -1 -1 -2 -1
-0 0 5 6 8 10 9 6 6 5 4 4 5 4 5 5 3 2 1 0 -0 -0 -0 -1 -1 -1 -1 -1 -1 -1 -1 -1 -1 -1 -1 -1 -1 -1 -1 -1 -1 -1 -1 -1 -1 -1 -2 -2 -2
2 2 4 8 8 7 6 5 5 5 5 4 5 7 4 2 2 1 0 0 0 0 -0 -1 -1 -1 -1 -1 -1 -1 -1 -1 -1 -1 -1 -1 -1 -1 -1 -1 -1 -1 -1 -1 -1 -1 -2 -2 -2
2 4 7 8 7 6 5 4 4 6 6 6 6 9 7 2 1 1 0 0 1 0 -0 -1 -1 -1 -1 -1 -1 -1 -1 -1 -1 -1 -1 -1 -1 -1 -1 -1 -1 -1 -1 -1 -1 -1 -1 -2 -2
5 5 8 9 8 6 5 4 5 5 4 6 6 7 6 2 2 1 0 0 0 0 -0 -1 -1 -1 -1 -1 -1 -1 -1 -1 -1 -1 -1 -1 -1 -1 -1 -1 -1 -1 -1 -1 -1 -2 -1 -1 -2
6 7 8 7 7 7 5 4 5 5 5 6 4 8 5 5 1 1 0 0 0 -0 -0 -0 -0 -1 -1 -1 -1 -1 -1 -1 -1 -1 -1 -1 -1 -1 -1 -1 -1 -1 -1 -1 -1 -1 -1 -1 -1
5 5 7 7 8 7 5 4 4 5 8 3 3 7 7 3 1 1 2 2 2 2 0 0 -0 -0 -1 -1 -1 -1 -1 -1 -1 -1 -1 -1 -1 -1 -1 -1 -1 -1 -1 -1 -1 -1 -1 -1 -1
3 7 8 7 7 6 4 5 3 4 5 5 4 4 3 2 2 2 3 2 1 1 1 1 0 -0 -0 -1 -1 -1 -1 -1 -1 -1 -1 -1 -1 -1 -1 -1 -2 -1 -1 -1 -1 -1 -1 -1 -1
5 7 7 6 5 5 5 5 4 5 6 6 5 3 2 2 2 4 4 4 2 2 1 2 1 1 0 -0 -1 -1 -1 -1 -1 -1 -1 -1 -1 -1 -1 -1 -2 -1 -1 -1 -1 -1 -1 -1 -0
4 6 5 5 4 4 5 5 4 6 7 5 6 4 3 3 2 3 2 2 2 1 1 4 1 1 1 -0 -0 1 3 1 1 -0 -1 -1 -0 -0 -0 -0 -0 -0 -1 -0 -1 -0 -0 -0 -0
6 5 5 4 4 4 5 5 6 6 6 4 3 3 3 4 3 3 3 2 2 1 1 1 -0 0 0 -0 0 2 1 -0 -0 -0 -1 -0 -0 0 -0 0 -0 -0 -0 -0 -0 -0 -0 -0 -0
5 5 4 4 4 4 4 6 6 6 4 3 3 3 3 3 3 2 2 2 1 2 1 1 0 0 -0 0 -0 1 1 1 0 -0 -0 -1 0 0 -0 0 -0 -0 -0 -0 0 0 0 0 0
4 5 5 4 4 4 6 6 6 6 4 4 4 4 3 3 3 2 2 2 2 1 1 0 0 -0 -0 -0 -0 0 -0 0 -0 -0 -0 -1 -1 -0 0 0 0 0 -0 -0 -0 0 0 0 0
4 6 5 5 5 6 6 9 10 5 4 5 4 4 3 3 2 3 2 2 1 1 1 1 0 -0 -0 -0 -1 -0 -0 -0 -0 -0 -1 -1 -1 -0 -0 0 0 -0 -0 -0 -0 0 0 0 0
7 7 8 6 6 6 7 12 7 5 5 5 5 4 4 3 3 2 2 2 1 1 1 0 0 0 -0 -0 -0 -0 -0 -0 -0 -0 -1 -1 -1 -1 -0 0 0 -0 -0 -0 0 1 1 1 1
7 9 8 7 5 7 8 12 7 6 5 5 5 4 4 4 3 2 1 1 1 1 1 1 0 0 0 -0 -0 -0 -0 -0 -0 -0 -0 -1 -1 -1 -0 -0 -0 -0 0 0 1 1 1 2 1
9 8 8 8 6 8 10 11 8 7 5 5 5 4 4 4 3 2 2 1 1 1 0 0 0 0 0 -0 -0 -0 -0 -0 -1 -0 -0 -1 -1 -1 -0 -0 -0 -0 0 1 1 1 1 1 1
7 7 8 7 5 6 8 11 7 6 6 6 5 5 5 4 3 2 1 1 1 1 1 1 1 0 0 1 1 1 1 1 0 -0 -1 -1 -1 -1 -0 0 0 0 0 1 1 1 2 2 1
7 8 8 7 6 6 10 11 10 6 6 6 5 5 5 4 3 3 2 1 1 1 0 0 -0 -0 -0 0 0 0 1 0 0 -0 -0 -1 -1 -1 -0 0 0 0 1 1 1 1 2 2 1
7 8 8 8 6 6 9 12 10 8 8 5 5 4 4 4 4 3 3 2 1 1 1 0 0 -0 -0 -0 0 0 0 0 1 1 0 -0 -0 -1 -0 -0 0 0 0 1 1 1 2 3 2
8 6 7 7 8 10 8 16 12 10 10 9 7 5 5 4 3 3 3 2 1 1 0 1 0 -0 0 0 1 1 2 2 1 1 0 0 -0 -0 -1 0 1 1 0 1 1 1 1 2 3
7 6 6 7 8 8 10 12 14 10 11 9 8 6 6 5 3 3 4 3 2 1 1 1 1 1 0 0 1 1 2 1 1 1 1 1 1 1 1 2 1 1 0 0 1 1 1 1 2
5 6 7 7 8 11 11 10 14 12 10 8 7 5 5 5 4 3 3 3 2 3 2 1 1 1 1 1 0 1 1 1 1 1 2 2 2 3 2 2 2 1 0 1 1 1 1 1 1
6 7 11 12 12 14 9 12 13 8 8 8 7 6 5 4 4 5 4 3 3 2 1 1 1 1 1 1 1 1 1 1 1 1 3 3 4 4 4 3 3 2 1 0 0 1 1 1 3
7 7 11 14 13 11 9 15 13 6 6 5 5 5 4 4 4 3 2 2 2 2 2 1 1 1 1 1 1 0 0 1 1 1 2 3 4 4 4 4 3 2 2 2 1 3 3 3 4
7 9 7 9 9 11 12 10 8 7 6 6 6 5 4 4 3 3 3 2 2 2 2 1 1 1 1 1 1 1 1 2 2 2 3 3 3 4 4 4 5 3 3 3 3 3 4 4 5
6 6 9 9 13 13 14 13 13 9 8 6 6 5 4 3 3 3 3 2 2 1 1 1 1 1 1 1 1 1 1 2 2 2 3 3 3 4 4 5 6 5 5 5 6 5 4 4 4
7 8 8 8 9 13 13 14 8 8 7 7 6 5 4 4 3 3 3 2 2 1 1 1 1 1 1 1 1 1 1 2 2 2 3 2 3 3 3 3 4 6 5 6 6 6 6 6 6
6 7 7 11 12 10 10 14 6 6 6 5 5 4 4 3 3 3 3 2 2 2 2 2 1 2 1 1 1 1 1 1 2 2 3 3 4 4 4 4 4 5 5 5 6 7 7 7 7